Ravenna, OH

5:14 AM EDT on August 26, 2016 (GMT -0400)
Ravenna

Weather History for KPOV - October, 2012

Change the Weather History Date:

Thursday, October 4, 2012

  Actual Average (KCAK) Record (KCAK)
Temperature  
Mean Temperature 62 °F 56 °F  
Max Temperature 71 °F 65 °F 86 °F (1951)
Min Temperature 53 °F 46 °F 28 °F (1974)
Degree Days  
Heating Degree Days 3 10  
Month to date heating degree days 37  
Since 1 July heating degree days 176  
Cooling Degree Days 0 0  
Month to date cooling degree days 3  
Year to date cooling degree days 649  
Growing Degree Days 12 (Base 50)    
Moisture  
Dew Point 54 °F    
Average Humidity 79    
Maximum Humidity 100    
Minimum Humidity 48    
Precipitation  
Precipitation 0.00 in 0.09 in 1.50 in (1954)
Month to date precipitation 0.37  
Year to date precipitation 31.02  
Snow  
Snow 0.00 in 0.00 in - ()
Month to date snowfall 0.0  
Since 1 July snowfall 0.0  
Since 1 September snowfall 0.0  
Snow Depth -    
Sea Level Pressure  
Sea Level Pressure 30.15 in    
Wind  
Wind Speed 2 mph (WSW)    
Max Wind Speed 16 mph    
Max Gust Speed 23 mph    
Visibility 10 miles    
Events      
T = Trace of Precipitation, MM = Missing Value Source: NWS Daily Summary

Daily Weather History Graph

Daily Weather History Graph

Search for Another Location

Airport or City:

Trip Planner

Search our weather history database for the weather conditions in past years. The results will help you decide how hot, cold, wet, or windy it might be!

Date:

Astronomy

Oct. 04, 2012 Rise Set
Actual Time 7:25 AM EDT 7:01 PM EDT
Civil Twilight 6:57 AM EDT 7:28 PM EDT
Nautical Twilight 6:25 AM EDT 8:00 PM EDT
Astronomical Twilight 5:53 AM EDT 8:32 PM EDT
Moon 9:33 PM EDT (10/4) 11:43 AM EDT (10/4)
Length of Visible Light 12h 30m
Length of Day
11h 35m
Waning Gibbous, 82% of the Moon is Illuminated
Oct 4
Waning Gibbous
Oct 8
Last Quarter
Oct 15
New
Oct 21
First Quarter
Oct 29
Full

Hourly Weather History & Observations

Time (EDT) Temp. Dew Point Humidity Pressure Visibility Wind Dir Wind Speed Gust Speed Precip Events Conditions
12:13 AM 53.1 °F 53.2 °F 100% 30.16 in 7.0 mi Calm Calm - N/A   Clear
12:33 AM 53.6 °F 53.6 °F 100% 30.16 in 10.0 mi Calm Calm - N/A   Clear
12:53 AM 53.6 °F 53.8 °F 100% 30.16 in 7.0 mi Calm Calm - N/A   Clear
1:14 AM 53.6 °F 53.8 °F 100% 30.16 in 10.0 mi Calm Calm - N/A   Clear
1:33 AM 53.8 °F 54.0 °F 100% 30.16 in 10.0 mi Calm Calm - N/A   Clear
1:53 AM 53.8 °F 54.0 °F 100% 30.17 in 10.0 mi Calm Calm - N/A   Clear
2:14 AM 54.0 °F 54.3 °F 100% 30.17 in 10.0 mi Calm Calm - N/A   Clear
2:33 AM 53.8 °F 54.0 °F 100% 30.16 in 7.0 mi Calm Calm - N/A   Clear
2:53 AM 53.1 °F 53.2 °F 100% 30.16 in 7.0 mi Calm Calm - N/A   Clear
3:13 AM 53.2 °F 53.6 °F 100% 30.15 in 7.0 mi Calm Calm - N/A   Clear
3:33 AM 53.4 °F 53.8 °F 100% 30.16 in 7.0 mi Calm Calm - N/A   Clear
3:54 AM 54.3 °F 54.3 °F 100% 30.16 in 10.0 mi Calm Calm - N/A   Clear
4:14 AM 55.2 °F 55.0 °F 99% 30.15 in 10.0 mi Calm Calm - N/A   Clear
4:33 AM 54.7 °F 54.5 °F 99% 30.16 in 10.0 mi Calm Calm - N/A   Clear
4:53 AM 54.9 °F 54.9 °F 100% 30.16 in 10.0 mi Calm Calm - N/A   Clear
5:14 AM 54.1 °F 54.3 °F 100% 30.16 in 10.0 mi Calm Calm - N/A   Clear
5:33 AM 55.0 °F 54.9 °F 99% 30.16 in 10.0 mi Calm Calm - N/A   Clear
5:53 AM 55.2 °F 54.3 °F 97% 30.16 in 10.0 mi Calm Calm - N/A   Clear
6:13 AM 55.2 °F 54.5 °F 97% 30.16 in 10.0 mi Calm Calm - N/A   Clear
6:54 AM 55.4 °F 54.3 °F 96% 30.17 in 10.0 mi Calm Calm - N/A   Clear
7:13 AM 55.2 °F 53.8 °F 95% 30.17 in 10.0 mi Calm Calm - N/A   Clear
7:33 AM 54.7 °F 54.3 °F 99% 30.18 in 10.0 mi Calm Calm - N/A   Clear
7:53 AM 55.6 °F 54.1 °F 95% 30.18 in 10.0 mi Calm Calm - N/A   Clear
8:14 AM 56.7 °F 54.1 °F 91% 30.18 in 10.0 mi Calm Calm - N/A   Clear
8:38 AM 57.2 °F 54.5 °F 91% 30.18 in 10.0 mi Calm Calm - N/A   Clear
8:53 AM 57.6 °F 54.5 °F 90% 30.18 in 10.0 mi Calm Calm - N/A   Clear
9:14 AM 57.9 °F 54.7 °F 89% 30.18 in 10.0 mi Calm Calm - N/A   Clear
9:33 AM 58.1 °F 54.5 °F 88% 30.18 in 10.0 mi Calm Calm - N/A   Clear
9:53 AM 59.7 °F 55.2 °F 85% 30.18 in 10.0 mi Calm Calm - N/A   Clear
10:13 AM 61.0 °F 55.0 °F 81% 30.18 in 10.0 mi SW 3.5 mph - N/A   Clear
10:33 AM 63.3 °F 54.9 °F 74% 30.18 in 10.0 mi SW 6.9 mph - N/A   Clear
10:54 AM 64.8 °F 53.6 °F 67% 30.18 in 10.0 mi SW 6.9 mph - N/A   Clear
11:14 AM 66.6 °F 53.4 °F 63% 30.18 in 10.0 mi SSW 9.2 mph - N/A   Clear
11:33 AM 67.3 °F 51.1 °F 56% 30.17 in 10.0 mi SW 8.1 mph 16.1 mph N/A   Clear
11:53 AM 68.5 °F 51.4 °F 54% 30.17 in 10.0 mi SSW 8.1 mph - N/A   Clear
12:14 PM 68.9 °F 50.9 °F 53% 30.17 in 10.0 mi SW 11.5 mph 16.1 mph N/A   Clear
12:33 PM 69.8 °F 50.9 °F 51% 30.17 in 10.0 mi SW 4.6 mph - N/A   Scattered Clouds
12:53 PM 70.3 °F 51.3 °F 51% 30.16 in 10.0 mi WSW 12.7 mph 21.9 mph N/A   Scattered Clouds
1:13 PM 70.3 °F 51.3 °F 51% 30.15 in 10.0 mi SW 8.1 mph - N/A   Scattered Clouds
1:33 PM 71.4 °F 51.8 °F 50% 30.15 in 10.0 mi WSW 10.4 mph 17.3 mph N/A   Mostly Cloudy
1:54 PM 70.2 °F 51.4 °F 51% 30.15 in 10.0 mi WSW 12.7 mph 16.1 mph N/A   Mostly Cloudy
2:33 PM 71.1 °F 51.1 °F 49% 30.13 in 10.0 mi West 16.1 mph 23.0 mph N/A   Scattered Clouds
2:53 PM 71.1 °F 50.7 °F 49% 30.13 in 10.0 mi WSW 9.2 mph 20.7 mph N/A   Mostly Cloudy
3:14 PM 71.4 °F 51.4 °F 49% 30.13 in 10.0 mi WSW 12.7 mph 17.3 mph N/A   Overcast
3:33 PM 70.5 °F 51.3 °F 50% 30.13 in 10.0 mi West 9.2 mph 16.1 mph N/A   Mostly Cloudy
3:53 PM 70.0 °F 51.4 °F 52% 30.13 in 10.0 mi WSW 8.1 mph - N/A   Overcast
4:14 PM 71.8 °F 51.3 °F 48% 30.12 in 10.0 mi West 9.2 mph 16.1 mph N/A   Overcast
4:33 PM 70.7 °F 51.3 °F 50% 30.12 in 10.0 mi WSW 9.2 mph - N/A   Mostly Cloudy
4:53 PM 70.5 °F 51.3 °F 50% 30.12 in 10.0 mi WSW 8.1 mph - N/A   Overcast
5:13 PM 69.4 °F 50.9 °F 52% 30.12 in 10.0 mi WSW 9.2 mph - N/A   Overcast
5:33 PM 70.2 °F 51.4 °F 51% 30.13 in 10.0 mi WSW 8.1 mph - N/A   Mostly Cloudy
5:54 PM 69.8 °F 52.0 °F 53% 30.12 in 10.0 mi WSW 4.6 mph - N/A   Clear
6:14 PM 68.9 °F 52.7 °F 56% 30.12 in 10.0 mi SW 4.6 mph - N/A   Clear
6:33 PM 67.6 °F 53.2 °F 60% 30.12 in 10.0 mi Calm Calm - N/A   Clear
6:53 PM 63.9 °F 55.0 °F 73% 30.12 in 10.0 mi Calm Calm - N/A   Clear
7:13 PM 61.9 °F 55.6 °F 80% 30.12 in 10.0 mi Calm Calm - N/A   Clear
7:33 PM 60.8 °F 55.6 °F 83% 30.12 in 10.0 mi Calm Calm - N/A   Clear
7:53 PM 59.7 °F 54.7 °F 83% 30.12 in 10.0 mi Calm Calm - N/A   Clear
8:13 PM 58.5 °F 54.7 °F 87% 30.12 in 10.0 mi Calm Calm - N/A   Clear
8:33 PM 57.7 °F 54.9 °F 90% 30.12 in 10.0 mi Calm Calm - N/A   Clear
8:53 PM 58.6 °F 55.6 °F 90% 30.12 in 10.0 mi Calm Calm - N/A   Clear
9:13 PM 58.6 °F 55.6 °F 90% 30.12 in 10.0 mi Calm Calm - N/A   Clear
9:33 PM 55.2 °F 53.6 °F 94% 30.12 in 10.0 mi Calm Calm - N/A   Clear
9:54 PM 56.5 °F 54.3 °F 92% 30.12 in 10.0 mi Calm Calm - N/A   Clear
10:13 PM 58.3 °F 54.5 °F 87% 30.12 in 10.0 mi Calm Calm - N/A   Clear
10:33 PM 58.6 °F 54.5 °F 86% 30.12 in 10.0 mi Calm Calm - N/A   Clear
10:54 PM 58.8 °F 54.7 °F 86% 30.11 in 10.0 mi Calm Calm - N/A   Clear
11:13 PM 59.2 °F 54.5 °F 84% 30.11 in 10.0 mi Calm Calm - N/A   Clear
11:33 PM 57.6 °F 54.0 °F 88% 30.11 in 10.0 mi Calm Calm - N/A   Clear
11:53 PM 58.6 °F 54.5 °F 86% 30.11 in 10.0 mi Calm Calm - N/A   Clear